FW9742 Weather Reports


time (UTC)temp
C
wind
direction
speed
KPH
gust
KPH
rain 1hr
cm
rain 24hr
cm
rain mn
cm
humidity
%
barometer
mb
20260510104641 19 51 1.6 3.2 0.00 0.00 0.00 96 1012.6
20260510104138 18 54 1.6 3.2 0.00 0.00 0.00 96 1012.1
20260510103635 18 49 0.0 3.2 0.00 0.00 0.00 96 1012.4
20260510103131 18 48 4.8 4.8 0.00 0.00 0.00 96 1012.2
20260510102626 18 26 1.6 3.2 0.00 0.00 0.00 96 1012.2
20260510102122 18 37 1.6 3.2 0.00 0.00 0.00 96 1012.3
20260510101620 18 23 0.0 0.0 0.00 0.00 0.00 96 1012.2
20260510101118 18 23 0.0 1.6 0.00 0.00 0.00 96 1012.1
20260510100614 18 25 1.6 1.6 0.00 0.00 0.00 96 1012.2
20260510100112 18 27 0.0 1.6 0.00 0.00 0.00 96 1012.1
20260510095607 18 26 0.0 0.0 0.00 0.00 0.00 96 1012.0
20260510095102 18 28 0.0 1.6 0.00 0.00 0.00 96 1012.0
20260510094601 18 22 0.0 1.6 0.00 0.00 0.00 96 1011.9
20260510094057 18 20 0.0 0.0 0.00 0.00 0.00 96 1012.0
20260510093553 18 20 0.0 0.0 0.00 0.00 0.00 96 1012.3
20260510093050 18 20 0.0 0.0 0.00 0.00 0.00 96 1012.1
20260510092547 18 20 0.0 0.0 0.00 0.00 0.00 96 1012.1
20260510092046 18 19 0.0 0.0 0.00 0.00 0.00 96 1011.8
20260510091544 18 19 0.0 1.6 0.00 0.00 0.00 96 1012.0
20260510091039 18 19 0.0 0.0 0.00 0.00 0.00 96 1012.1
20260510090537 18 18 0.0 0.0 0.00 0.00 0.00 96 1012.2
20260510090032 18 19 0.0 0.0 0.00 0.00 0.00 96 1011.8
20260510085527 18 18 0.0 0.0 0.00 0.00 0.00 96 1011.9
20260510085023 18 19 0.0 0.0 0.00 0.00 0.00 96 1012.0
20260510084520 18 19 0.0 1.6 0.00 0.00 0.00 96 1012.0
20260510084017 18 17 0.0 1.6 0.00 0.00 0.00 96 1012.0
20260510083513 18 18 0.0 1.6 0.00 0.00 0.00 96 1012.0
20260510083009 18 18 0.0 0.0 0.00 0.00 0.00 96 1012.1
20260510082507 18 18 0.0 1.6 0.00 0.00 0.00 96 1011.9
20260510082006 18 19 0.0 0.0 0.00 0.00 0.00 96 1012.1
20260510081502 18 19 0.0 0.0 0.00 0.00 0.00 96 1011.9
20260510080958 18 18 0.0 1.6 0.00 0.00 0.00 96 1011.8
20260510080456 18 21 1.6 3.2 0.00 0.00 0.00 96 1011.6
20260510075954 18 25 1.6 3.2 0.00 0.00 0.00 96 1011.6
20260510075452 18 22 3.2 4.8 0.00 0.00 0.00 96 1011.4
20260510074948 18 24 3.2 3.2 0.00 0.00 0.00 96 1011.6
20260510074446 18 26 1.6 1.6 0.00 0.00 0.00 96 1011.5
20260510073942 18 25 1.6 1.6 0.00 0.00 0.00 96 1011.6
20260510073437 18 35 1.6 1.6 0.00 0.00 0.00 96 1011.5
20260510072934 18 18 0.0 0.0 0.00 0.00 0.00 96 1011.6
20260510072431 18 10 0.0 0.0 0.00 0.00 0.00 96 1011.5
20260510071926 18 19 1.6 1.6 0.00 0.00 0.00 96 1011.4
20260510071423 18 24 1.6 3.2 0.00 0.00 0.00 96 1011.5
20260510070921 18 21 1.6 1.6 0.00 0.00 0.00 96 1011.5
20260510070419 18 10 3.2 3.2 0.00 0.00 0.00 96 1011.5
20260510065914 18 4 1.6 1.6 0.00 0.00 0.00 96 1011.5
20260510065410 18 10 1.6 1.6 0.00 0.00 0.00 96 1011.3
20260510064907 19 6 1.6 3.2 0.00 0.00 0.00 96 1011.6
20260510064405 18 1 0.0 0.0 0.00 0.00 0.00 96 1011.4
20260510063901 18 2 0.0 0.0 0.00 0.00 0.00 96 1011.6
20260510063357 19 3 1.6 1.6 0.00 0.00 0.00 96 1011.4
20260510062854 19 33 0.0 1.6 0.00 0.00 0.00 96 1011.4
20260510062349 19 40 0.0 1.6 0.00 0.00 0.00 96 1011.5
20260510061845 19 59 1.6 3.2 0.00 0.00 0.00 96 1011.5
20260510061342 19 43 0.0 1.6 0.00 0.00 0.00 96 1011.6
20260510060838 19 27 0.0 3.2 0.00 0.00 0.00 96 1011.7
20260510060335 19 9 1.6 1.6 0.00 0.00 0.00 96 1011.6
20260510055832 19 19 1.6 1.6 0.00 0.00 0.00 96 1011.9
20260510055331 19 25 3.2 4.8 0.00 0.00 0.00 96 1011.7
20260510054825 19 13 4.8 4.8 0.00 0.00 0.00 96 1011.8
20260510054321 19 11 4.8 4.8 0.00 0.00 0.00 96 1012.0
20260510053816 19 328 4.8 8.0 0.00 0.00 0.00 96 1012.0
20260510053311 19 0 1.6 9.7 0.00 0.00 0.00 96 1011.9
20260510052808 19 347 4.8 8.0 0.00 0.00 0.00 96 1011.8
20260510052306 19 4 8.0 9.7 0.00 0.00 0.00 96 1011.4
20260510051800 20 24 4.8 8.0 0.00 0.00 0.00 96 1011.5
20260510051257 20 44 3.2 4.8 0.00 0.00 0.00 96 1011.6
20260510050754 20 358 4.8 8.0 0.00 0.00 0.00 96 1011.3
20260510050251 20 21 4.8 8.0 0.00 0.00 0.00 96 1011.3
20260510045748 20 79 3.2 4.8 0.00 4.04 4.04 96 1010.9
20260510045244 20 138 1.6 4.8 0.00 4.04 4.04 96 1010.9
20260510044741 20 152 3.2 4.8 0.00 4.04 4.04 96 1010.8
20260510044239 20 216 3.2 8.0 0.00 4.04 4.04 96 1010.6
20260510043734 20 178 4.8 8.0 0.00 4.04 4.04 96 1010.6
20260510043231 20 196 4.8 9.7 0.00 4.04 4.04 96 1010.7
20260510042728 20 210 4.8 9.7 0.00 4.04 4.04 96 1010.6
20260510042224 20 255 1.6 9.7 0.00 4.04 4.04 96 1010.7
20260510041721 20 223 3.2 4.8 0.00 4.04 4.04 96 1010.8
20260510041218 20 232 4.8 9.7 0.00 4.04 4.04 96 1011.0
20260510040709 20 209 4.8 4.8 0.00 4.04 4.04 96 1011.1
20260510040206 20 207 3.2 8.0 0.00 4.04 4.04 96 1011.4
20260510035701 20 240 3.2 11.3 0.00 4.04 4.04 96 1011.5
20260510035157 20 231 3.2 8.0 0.00 4.04 4.04 96 1011.8
20260510034653 20 256 1.6 9.7 0.00 4.04 4.04 96 1011.7
20260510034151 20 183 6.4 8.0 0.00 4.04 4.04 96 1011.7
20260510033647 20 240 3.2 8.0 0.00 4.04 4.04 96 1011.8
20260510033145 20 252 4.8 8.0 0.00 4.04 4.04 96 1011.7
20260510032641 20 205 3.2 8.0 0.00 4.04 4.04 96 1011.8
20260510032137 20 202 1.6 4.8 0.00 4.04 4.04 96 1011.9
20260510031631 20 297 1.6 1.6 0.00 4.04 4.04 96 1012.2
20260510031129 20 314 0.0 0.0 0.00 4.04 4.04 96 1012.3
20260510030623 20 314 0.0 0.0 0.00 4.04 4.04 96 1012.5
20260510030121 20 317 0.0 1.6 0.00 4.04 4.04 96 1012.5
20260510025618 20 305 0.0 1.6 0.00 4.04 4.04 96 1012.6
20260510025115 20 181 0.0 1.6 0.00 4.04 4.04 96 1012.6
20260510024612 20 311 1.6 4.8 0.00 4.04 4.04 96 1012.7
20260510024108 20 331 1.6 3.2 0.00 4.04 4.04 96 1012.4
20260510023604 20 353 0.0 0.0 0.00 4.04 4.04 96 1012.7
20260510023102 20 354 0.0 0.0 0.00 4.04 4.04 96 1012.6
20260510022601 20 354 0.0 0.0 0.00 4.04 4.04 96 1012.6
20260510022056 20 354 0.0 1.6 0.00 4.04 4.04 96 1012.6
20260510021552 20 358 1.6 1.6 0.00 4.04 4.04 96 1012.3
20260510021050 20 358 0.0 0.0 0.00 4.04 4.04 96 1012.5
20260510020544 20 358 0.0 0.0 0.00 4.04 4.04 96 1012.2
20260510020040 20 358 0.0 0.0 0.00 4.04 4.04 96 1012.1
20260510015536 20 358 0.0 0.0 0.00 4.04 4.04 96 1012.1
20260510015032 20 358 0.0 0.0 0.00 4.04 4.04 96 1012.3
20260510014528 20 358 0.0 0.0 0.00 4.04 4.04 96 1012.1
20260510014026 20 358 0.0 1.6 0.00 4.04 4.04 96 1011.9
20260510013520 20 353 1.6 3.2 0.00 4.04 4.04 96 1012.2
20260510013016 20 4 0.0 1.6 0.00 4.04 4.04 96 1012.0
20260510012510 20 5 0.0 0.0 0.00 4.04 4.04 96 1012.0
20260510012007 20 13 0.0 0.0 0.00 4.04 4.04 96 1011.8
20260510011501 20 13 0.0 0.0 0.00 4.04 4.04 96 1011.8
20260510010957 20 13 0.0 1.6 0.00 4.04 4.04 96 1011.3
20260510010455 20 13 0.0 1.6 0.00 4.04 4.04 96 1011.6
20260510005951 20 22 1.6 4.8 0.00 4.04 4.04 96 1011.3
20260510005447 20 9 1.6 3.2 0.00 4.04 4.04 96 1011.6
20260510004945 20 72 1.6 4.8 0.00 4.04 4.04 96 1011.3
20260510004442 20 147 4.8 8.0 0.00 4.04 4.04 96 1011.2
20260510003940 20 80 1.6 4.8 0.00 4.04 4.04 96 1011.2
20260510003437 20 81 1.6 8.0 0.00 4.04 4.04 96 1011.1
20260510002936 20 142 4.8 8.0 0.00 4.04 4.04 96 1011.0
20260510002433 20 121 3.2 8.0 0.00 4.04 4.04 96 1010.8
20260510001929 20 161 4.8 4.8 0.00 4.04 4.04 96 1010.9
20260510001427 20 179 4.8 8.0 0.00 4.04 4.04 96 1010.7
20260510000925 20 183 6.4 9.7 0.00 4.04 4.04 96 1010.5
20260510000421 20 154 4.8 8.0 0.00 4.04 4.04 96 1010.6
20260509235917 20 156 3.2 3.2 0.00 4.04 4.04 96 1010.9
20260509235414 20 127 1.6 4.8 0.00 4.04 4.04 96 1010.9
20260509234910 20 180 3.2 4.8 0.00 4.04 4.04 96 1010.7
20260509234407 20 156 3.2 3.2 0.00 4.04 4.04 96 1010.7
20260509233906 20 124 1.6 8.0 0.00 4.04 4.04 96 1010.8
20260509233403 20 122 3.2 4.8 0.00 4.04 4.04 96 1010.7
20260509232858 20 140 3.2 8.0 0.00 4.04 4.04 96 1010.8
20260509232356 20 77 1.6 3.2 0.00 4.04 4.04 96 1011.2
20260509231852 20 47 1.6 1.6 0.00 4.04 4.04 96 1010.7
20260509231349 20 75 1.6 4.8 0.00 4.04 4.04 96 1010.8
20260509230841 20 69 3.2 3.2 0.00 4.04 4.04 96 1010.8
20260509230338 19 92 4.8 4.8 0.00 4.04 4.04 96 1010.5
20260509225833 19 81 4.8 4.8 0.00 4.04 4.04 96 1010.8
20260509225331 19 53 1.6 3.2 0.18 4.04 4.04 96 1011.1
20260509224827 19 32 0.0 1.6 0.48 4.04 4.04 96 1011.1
20260509224322 19 9 0.0 1.6 0.30 4.01 4.01 96 1011.4
20260509223819 19 8 1.6 3.2 0.00 3.96 3.96 96 1011.3
20260509223316 19 338 1.6 1.6 0.00 3.96 3.96 96 1011.6
20260509222813 20 347 0.0 0.0 0.00 3.96 3.96 96 1011.1
20260509222308 20 353 0.0 1.6 0.00 3.96 3.96 96 1011.2
20260509221804 19 352 0.0 1.6 0.00 3.96 3.96 96 1011.1
20260509221302 19 3 0.0 0.0 0.00 3.96 3.96 96 1010.9
20260509220756 19 3 0.0 0.0 0.13 3.96 3.96 96 1010.9
20260509220253 19 19 0.0 1.6 0.13 3.96 3.96 96 1010.8
20260509215748 19 4 0.0 1.6 0.18 3.94 3.94 96 1010.7
20260509215245 19 36 0.0 3.2 0.18 3.94 3.94 96 1010.6
20260509214742 19 37 0.0 1.6 0.13 3.91 3.91 96 1010.8
20260509214239 19 40 1.6 1.6 0.13 3.91 3.91 96 1010.9
20260509213736 19 43 1.6 4.8 0.30 3.89 3.89 96 1010.8
20260509213232 19 68 1.6 4.8 0.30 3.86 3.86 96 1011.1
20260509212730 19 49 3.2 3.2 0.30 3.84 3.84 96 1011.0
20260509212227 19 32 1.6 3.2 0.30 3.81 3.81 96 1011.0
20260509211722 19 9 3.2 3.2 0.13 3.76 3.76 96 1011.3
20260509211219 19 354 3.2 4.8 0.18 3.73 3.73 96 1011.4
20260509210715 19 332 1.6 1.6 0.18 3.73 3.73 96 1011.5
20260509210213 19 358 0.0 0.0 0.00 3.71 3.71 96 1010.9
20260509205713 19 341 0.0 1.6 0.18 3.71 3.71 96 1011.1
20260509205212 18 336 0.0 3.2 0.18 3.71 3.71 96 1010.9
20260509204709 18 189 3.2 4.8 0.00 3.68 3.68 96 1010.8
20260509204205 18 73 4.8 11.3 0.00 3.68 3.68 96 1010.7
20260509203701 19 91 4.8 8.0 0.00 3.68 3.68 96 1010.3
20260509203200 19 107 3.2 8.0 0.00 3.68 3.68 96 1010.6
20260509202655 18 96 8.0 9.7 0.00 3.68 3.68 96 1010.4
20260509202150 18 109 8.0 12.9 0.00 3.68 3.68 96 1010.2
20260509201646 19 83 4.8 4.8 0.00 3.68 3.68 96 1010.5
20260509201143 18 112 3.2 9.7 0.00 3.68 3.68 96 1010.4
20260509200639 18 118 8.0 12.9 0.00 3.68 3.68 96 1010.4
20260509200134 18 110 8.0 11.3 0.00 3.68 3.68 96 1010.7
20260509195630 18 92 6.4 9.7 0.00 3.68 3.68 96 1010.9
20260509195125 19 80 3.2 8.0 0.13 3.68 3.68 96 1011.1
20260509194625 18 103 3.2 14.5 0.13 3.68 3.68 96 1011.2
20260509194122 18 77 4.8 8.0 0.18 3.66 3.66 96 1011.2
20260509193618 18 68 3.2 4.8 0.18 3.66 3.66 96 1011.6
20260509193114 18 65 1.6 3.2 0.13 3.63 3.63 96 1012.1
20260509192611 18 43 1.6 1.6 0.13 3.63 3.63 96 1012.1
20260509192106 19 39 1.6 3.2 0.18 3.61 3.61 96 1012.1
20260509191601 19 35 0.0 1.6 0.18 3.61 3.61 96 1012.2
20260509191057 19 91 4.8 4.8 0.13 3.58 3.58 96 1012.0
20260509190554 19 91 4.8 8.0 0.30 3.58 3.58 96 1011.9
20260509190052 18 123 1.6 4.8 0.18 3.56 3.56 96 1012.3
20260509185549 19 44 0.0 9.7 0.13 3.53 3.53 96 1011.8
20260509185045 19 92 3.2 11.3 0.30 3.53 3.53 96 1012.1
20260509184543 19 89 1.6 3.2 0.48 3.51 3.51 96 1012.0
20260509184039 19 102 1.6 3.2 0.36 3.45 3.45 96 1012.1
20260509183534 19 86 4.8 4.8 0.79 3.43 3.43 96 1011.8
20260509183031 19 103 3.2 3.2 0.61 3.38 3.38 96 1012.4
20260509182527 19 55 0.0 3.2 0.43 3.30 3.30 96 1012.7
20260509182024 19 181 3.2 4.8 0.30 3.25 3.25 96 1012.4
20260509181523 19 146 3.2 8.0 0.30 3.23 3.23 96 1012.0
20260509181020 19 153 3.2 8.0 0.30 3.20 3.20 96 1011.8
20260509180515 19 142 3.2 4.8 0.30 3.17 3.17 96 1012.3
20260509180013 19 104 8.0 11.3 0.30 3.15 3.15 96 1011.9
20260509175508 18 120 4.8 8.0 0.18 3.12 3.12 96 1011.3
20260509175005 19 94 4.8 9.7 0.18 3.10 3.10 96 1012.1
20260509174501 19 143 4.8 4.8 0.18 3.10 3.10 96 1012.3
20260509173956 19 147 1.6 4.8 0.00 3.07 3.07 95 1011.7
20260509173451 19 54 3.2 3.2 0.13 3.07 3.07 95 1012.2
20260509172948 19 98 3.2 4.8 0.13 3.07 3.07 95 1012.0
20260509172445 19 171 4.8 9.7 0.00 3.05 3.05 95 1011.8
20260509171940 19 141 6.4 8.0 0.18 3.05 3.05 95 1012.1
20260509171436 19 87 3.2 3.2 0.18 3.05 3.05 95 1012.2
20260509170933 19 87 6.4 11.3 0.00 3.02 3.02 95 1011.7
20260509170429 19 141 6.4 20.9 0.00 3.02 3.02 95 1011.1
20260509165925 19 61 9.7 12.9 0.13 3.02 3.02 95 1011.7
20260509165425 19 84 11.3 14.5 0.13 3.02 3.02 95 1012.1
20260509164920 19 134 4.8 8.0 0.30 3.00 3.00 95 1011.9
20260509164417 19 84 4.8 8.0 0.43 2.97 2.97 95 1012.1
20260509163913 19 147 4.8 4.8 0.48 2.95 2.95 95 1012.2
20260509163410 19 133 4.8 9.7 0.30 2.90 2.90 95 1012.7
20260509162909 19 135 6.4 8.0 0.13 2.87 2.87 95 1012.6
20260509162408 19 92 11.3 14.5 0.00 2.84 2.84 95 1012.3
20260509161903 19 134 6.4 8.0 0.48 2.84 2.84 95 1012.2
20260509161400 19 84 8.0 14.5 0.66 2.84 2.84 95 1012.0
20260509160856 19 88 11.3 16.1 0.00 2.74 2.74 95 1012.0
20260509160351 19 77 8.0 12.9 0.30 2.74 2.74 95 1012.2
20260509155847 19 86 9.7 14.5 1.63 2.74 2.74 95 1012.4
20260509155343 19 107 12.9 17.7 1.68 2.67 2.67 94 1012.0
20260509154840 19 108 9.7 16.1 0.97 2.46 2.46 94 1012.5
20260509154337 19 56 9.7 11.3 1.02 2.36 2.36 94 1012.4
20260509153833 19 139 6.4 9.7 0.30 2.24 2.24 94 1012.4
20260509153330 19 86 4.8 8.0 0.00 2.18 2.18 94 1012.6
20260509152827 19 96 6.4 11.3 0.18 2.18 2.18 94 1012.4
20260509152323 19 82 4.8 4.8 0.36 2.18 2.18 94 1012.3
20260509151821 19 48 6.4 8.0 0.61 2.16 2.16 94 1011.9
20260509151316 18 75 4.8 9.7 2.11 2.13 2.13 94 1012.3
20260509150815 18 55 4.8 8.0 1.68 2.03 2.03 94 1012.2
20260509150312 18 47 1.6 9.7 0.30 1.78 1.78 94 1012.3
20260509145809 18 80 4.8 8.0 0.61 1.75 1.75 94 1012.4
20260509145309 18 119 4.8 8.0 1.07 1.73 1.73 94 1012.1
20260509144806 18 88 9.7 16.1 1.07 1.65 1.65 94 1011.9
20260509144303 18 67 4.8 11.3 1.07 1.55 1.55 94 1012.1
20260509143800 18 66 8.0 9.7 0.61 1.47 1.47 94 1012.6
20260509143258 18 61 4.8 14.5 0.13 1.37 1.37 94 1012.1
20260509142753 18 93 9.7 11.3 0.13 1.37 1.37 94 1011.9
20260509142249 18 88 9.7 12.9 0.18 1.35 1.35 94 1012.1
20260509141745 18 67 3.2 8.0 0.61 1.35 1.35 94 1011.9
20260509141243 18 76 3.2 8.0 0.61 1.30 1.30 94 1012.0
20260509140739 18 83 4.8 8.0 0.30 1.22 1.22 94 1012.1
20260509140236 18 58 0.0 1.6 0.48 1.19 1.19 94 1012.3
20260509135734 18 71 1.6 4.8 0.13 1.14 1.14 94 1011.9
20260509135232 18 63 1.6 3.2 0.00 1.12 1.12 94 1012.0
20260509134728 18 77 3.2 11.3 0.18 1.12 1.12 94 1011.7
20260509134226 18 89 9.7 12.9 0.18 1.12 1.12 94 1011.8
20260509133723 18 65 6.4 11.3 0.00 1.09 1.09 94 1011.7
20260509133219 18 76 3.2 8.0 0.30 1.09 1.09 94 1011.9
20260509132718 18 50 6.4 11.3 0.89 1.09 1.09 94 1012.0
20260509132216 18 58 1.6 8.0 1.68 1.04 1.04 94 1012.6
20260509131713 18 56 8.0 12.9 1.85 0.91 0.91 94 1012.4
20260509131209 18 67 8.0 9.7 1.27 0.74 0.74 94 1012.9
20260509130705 18 3 9.7 17.7 1.07 0.58 0.58 94 1012.7
20260509130201 18 22 11.3 20.9 1.85 0.51 0.51 94 1012.9
20260509125658 18 347 8.0 24.1 2.11 0.38 0.38 94 1013.1
20260509125155 18 290 8.0 29.0 1.07 0.18 0.18 94 1012.9
20260509124652 19 349 25.7 35.4 0.00 0.00 0.00 94 1012.3
20260509124148 20 9 19.3 33.8 0.00 0.00 0.00 94 1012.2
20260509123646 22 326 19.3 24.1 0.00 0.00 0.00 95 1011.4
20260509123143 22 349 0.0 0.0 0.00 0.00 0.00 95 1010.4
20260509122638 21 321 0.0 0.0 0.00 0.00 0.00 95 1010.1
20260509122136 21 321 0.0 1.6 0.00 0.00 0.00 95 1010.2
20260509121632 21 333 0.0 1.6 0.00 0.00 0.00 95 1009.9
20260509121130 21 332 0.0 1.6 0.00 0.00 0.00 95 1010.0
20260509120628 21 53 1.6 3.2 0.00 0.00 0.00 95 1009.7
20260509120126 21 68 1.6 1.6 0.00 0.00 0.00 95 1009.6
20260509115623 21 152 3.2 4.8 0.00 0.00 0.00 95 1009.4
20260509115121 21 153 3.2 8.0 0.00 0.00 0.00 95 1009.3
20260509114619 21 183 3.2 4.8 0.00 0.00 0.00 95 1009.5
20260509114117 21 222 1.6 4.8 0.00 0.00 0.00 95 1009.7
20260509113615 21 186 3.2 3.2 0.00 0.00 0.00 95 1009.6
20260509113112 21 316 0.0 3.2 0.00 0.00 0.00 95 1009.7
20260509112609 21 239 1.6 3.2 0.00 0.00 0.00 95 1009.4
20260509112106 21 264 1.6 3.2 0.00 0.00 0.00 95 1009.2
20260509111603 21 171 1.6 3.2 0.00 0.00 0.00 95 1009.4
20260509111100 21 165 3.2 3.2 0.00 0.00 0.00 95 1009.2
20260509110557 21 131 1.6 3.2 0.00 0.00 0.00 95 1009.1
20260509110054 21 42 1.6 1.6 0.00 0.00 0.00 95 1009.0
20260509105552 21 15 0.0 0.0 0.00 0.00 0.00 95 1009.2
20260509105049 21 345 0.0 0.0 0.00 0.00 0.00 95 1009.2